Location: New Plymouth
(39.0670°S, 174.0830°E)
Time: 19:40:06
(UTC+13:00)

Cosmos 1242 Rocket - Pass Details

Date: 24 January 2019
Orbit: 449 x 490 km, 81.2° (Epoch: 20 February)

Event Time Altitude Azimuth Distance (km) Brightness Sun altitude
Rises 22:53:57 0° 198° (SSW) 2,606 7.5 -20.5°
Reaches altitude 10° 22:56:10 10° 205° (SSW) 1,716 6.4 -20.8°
Maximum altitude 22:59:41 38° 274° (W) 770 3.8 -21.2°
Enters shadow 23:00:49 30° 314° (NW) 910 3.8 -21.4°
